| time (UTC) | temp F | wind direction | speed MPH | gust MPH | rain 1hr in | rain 24hr in | rain mn in | humidity % | barometer mb |
| 20260506031519 | 70 | 123 | 9.0 | 26.0 | 0.00 | 0.00 | 0.00 | 39 | 1010.1 |
| 20260506030027 | 71 | 119 | 14.0 | 23.0 | 0.00 | 0.00 | 0.00 | 38 | 1009.7 |
| 20260506024534 | 71 | 144 | 10.0 | 27.0 | 0.00 | 0.00 | 0.00 | 37 | 1009.3 |
| 20260506023017 | 72 | 110 | 13.0 | 30.0 | 0.00 | 0.00 | 0.00 | 36 | 1009.0 |
| 20260506021517 | 72 | 360 | 18.0 | 26.0 | 0.00 | 0.00 | 0.00 | 34 | 1008.8 |
| 20260506020016 | 74 | 360 | 11.0 | 22.0 | 0.00 | 0.00 | 0.00 | 32 | 1008.5 |
| 20260506014519 | 75 | 360 | 9.0 | 26.0 | 0.00 | 0.00 | 0.00 | 30 | 1008.5 |
| 20260506013015 | 76 | 360 | 10.0 | 22.0 | 0.00 | 0.00 | 0.00 | 28 | 1008.2 |
| 20260506011514 | 76 | 360 | 13.0 | 24.0 | 0.00 | 0.00 | 0.00 | 27 | 1008.1 |
| 20260506010014 | 77 | 360 | 9.0 | 22.0 | 0.00 | 0.00 | 0.00 | 26 | 1008.0 |
| 20260506004513 | 77 | 360 | 10.0 | 18.0 | 0.00 | 0.00 | 0.00 | 24 | 1008.1 |
| 20260506003016 | 78 | 360 | 6.0 | 16.0 | 0.00 | 0.00 | 0.00 | 23 | 1007.9 |
| 20260506001511 | 78 | 360 | 10.0 | 17.0 | 0.00 | 0.00 | 0.00 | 23 | 1007.9 |
| 20260506000011 | 78 | 360 | 9.0 | 19.0 | 0.00 | 0.00 | 0.00 | 23 | 1008.1 |
| 20260505234514 | 78 | 360 | 7.0 | 18.0 | 0.00 | 0.00 | 0.00 | 24 | 1008.0 |
| 20260505233012 | 78 | 360 | 4.0 | 13.0 | 0.00 | 0.00 | 0.00 | 24 | 1008.0 |
| 20260505231509 | 79 | 360 | 11.0 | 17.0 | 0.00 | 0.00 | 0.00 | 24 | 1008.2 |
| 20260505230021 | 79 | 360 | 6.0 | 12.0 | 0.00 | 0.00 | 0.00 | 24 | 1008.3 |
| 20260505224506 | 78 | 360 | 5.0 | 16.0 | 0.00 | 0.00 | 0.00 | 25 | 1008.3 |
| 20260505223004 | 79 | 360 | 12.0 | 19.0 | 0.00 | 0.00 | 0.00 | 24 | 1008.6 |
| 20260505221503 | 77 | 155 | 6.0 | 13.0 | 0.00 | 0.00 | 0.00 | 25 | 1008.9 |
| 20260505220059 | 78 | 360 | 4.0 | 14.0 | 0.00 | 0.00 | 0.00 | 25 | 1009.0 |
| 20260505214557 | 78 | 360 | 2.0 | 14.0 | 0.00 | 0.00 | 0.00 | 26 | 1009.3 |
| 20260505213101 | 78 | 360 | 3.0 | 19.0 | 0.00 | 0.00 | 0.00 | 27 | 1009.3 |
| 20260505211554 | 77 | 360 | 6.0 | 17.0 | 0.00 | 0.00 | 0.00 | 27 | 1009.7 |
| 20260505210054 | 77 | 143 | 9.0 | 20.0 | 0.00 | 0.00 | 0.00 | 27 | 1009.7 |
| 20260505204555 | 77 | 360 | 7.0 | 14.0 | 0.00 | 0.00 | 0.00 | 27 | 1009.8 |
| 20260505203100 | 76 | 138 | 10.0 | 24.0 | 0.00 | 0.00 | 0.00 | 29 | 1009.9 |
| 20260505201549 | 77 | 275 | 0.0 | 14.0 | 0.00 | 0.00 | 0.00 | 30 | 1010.0 |
| 20260505200049 | 76 | 288 | 2.0 | 15.0 | 0.00 | 0.00 | 0.00 | 30 | 1010.1 |
| 20260505194550 | 75 | 100 | 0.0 | 11.0 | 0.00 | 0.00 | 0.00 | 32 | 1010.4 |
| 20260505193048 | 75 | 360 | 11.0 | 16.0 | 0.00 | 0.00 | 0.00 | 31 | 1010.4 |
| 20260505191607 | 76 | 173 | 0.0 | 14.0 | 0.00 | 0.00 | 0.00 | 32 | 1010.7 |
| 20260505190043 | 73 | 189 | 1.0 | 7.0 | 0.00 | 0.00 | 0.00 | 34 | 1010.9 |
| 20260505184542 | 74 | 136 | 0.0 | 5.0 | 0.00 | 0.00 | 0.00 | 34 | 1010.9 |
| 20260505183042 | 74 | 360 | 0.0 | 9.0 | 0.00 | 0.00 | 0.00 | 33 | 1011.0 |
| 20260505181539 | 73 | 360 | 0.0 | 6.0 | 0.00 | 0.00 | 0.00 | 36 | 1011.0 |
| 20260505180051 | 73 | 140 | 1.0 | 12.0 | 0.00 | 0.00 | 0.00 | 35 | 1011.0 |
| 20260505174548 | 72 | 360 | 0.0 | 5.0 | 0.00 | 0.00 | 0.00 | 35 | 1011.0 |
| 20260505173037 | 73 | 360 | 1.0 | 4.0 | 0.00 | 0.00 | 0.00 | 36 | 1011.0 |
| 20260505171533 | 0 | 0.0 | 0.0 | 0.00 | 0.00 | 0.00 | 1010.8 | ||
| 20260505170028 | 0 | 0.0 | 0.0 | 0.00 | 0.00 | 0.00 | 1011.0 | ||
| 20260505164526 | 0 | 0.0 | 0.0 | 0.00 | 0.00 | 0.00 | 1010.9 | ||
| 20260505163019 | 0 | 0.0 | 0.0 | 0.00 | 0.00 | 0.00 | 1011.0 | ||
| 20260505161515 | 0 | 0.0 | 0.0 | 0.00 | 0.00 | 0.00 | 1010.7 | ||
| 20260505153007 | 0 | 0.0 | 0.0 | 0.00 | 0.00 | 0.00 | 1010.4 | ||
| 20260505151558 | 0 | 0.0 | 0.0 | 0.00 | 0.00 | 0.00 | 1010.3 | ||
| 20260505124516 | 0 | 0.0 | 0.0 | 0.00 | 0.00 | 0.00 | 1009.8 | ||
| 20260505123022 | 0 | 0.0 | 0.0 | 0.00 | 0.00 | 0.00 | 1009.7 | ||
| 20260505121506 | 0 | 0.0 | 0.0 | 0.00 | 0.00 | 0.00 | 1009.7 | ||
| 20260505120105 | 0 | 0.0 | 0.0 | 0.00 | 0.00 | 0.00 | 1009.6 | ||
| 20260505114601 | 0 | 0.0 | 0.0 | 0.00 | 0.00 | 0.00 | 1009.7 | ||
| 20260505113055 | 0 | 0.0 | 0.0 | 0.00 | 0.00 | 0.00 | 1009.7 | ||
| 20260505111547 | 0 | 0.0 | 0.0 | 0.00 | 0.00 | 0.00 | 1009.8 | ||
| 20260505101548 | 63 | 175 | 5.0 | 16.0 | 0.00 | 0.00 | 0.00 | 51 | 1009.4 |
| 20260505100052 | 63 | 126 | 10.0 | 15.0 | 0.00 | 0.00 | 0.00 | 51 | 1009.5 |
| 20260505094531 | 63 | 113 | 5.0 | 16.0 | 0.00 | 0.00 | 0.00 | 52 | 1009.6 |
| 20260505093026 | 64 | 143 | 9.0 | 18.0 | 0.00 | 0.00 | 0.00 | 51 | 1009.7 |
| 20260505091522 | 64 | 145 | 8.0 | 18.0 | 0.00 | 0.00 | 0.00 | 51 | 1009.6 |
| 20260505090021 | 64 | 121 | 5.0 | 16.0 | 0.00 | 0.00 | 0.00 | 50 | 1009.6 |
| 20260505084517 | 64 | 121 | 3.0 | 13.0 | 0.00 | 0.00 | 0.00 | 49 | 1009.7 |
| 20260505083015 | 64 | 150 | 1.0 | 11.0 | 0.00 | 0.00 | 0.00 | 49 | 1009.7 |
| 20260505081513 | 64 | 178 | 2.0 | 9.0 | 0.00 | 0.00 | 0.00 | 49 | 1009.9 |
| 20260505080011 | 65 | 142 | 1.0 | 13.0 | 0.00 | 0.00 | 0.00 | 49 | 1009.9 |
| 20260505074510 | 65 | 138 | 2.0 | 11.0 | 0.00 | 0.00 | 0.00 | 48 | 1009.8 |
| 20260505073027 | 65 | 200 | 0.0 | 8.0 | 0.00 | 0.00 | 0.00 | 47 | 1010.0 |
| 20260505071506 | 65 | 161 | 2.0 | 12.0 | 0.00 | 0.00 | 0.00 | 46 | 1010.1 |
| 20260505070006 | 65 | 210 | 0.0 | 8.0 | 0.00 | 0.00 | 0.00 | 46 | 1010.0 |
| 20260505064503 | 66 | 150 | 0.0 | 9.0 | 0.00 | 0.00 | 0.00 | 45 | 1010.0 |
| 20260505063005 | 66 | 150 | 2.0 | 12.0 | 0.00 | 0.00 | 0.00 | 45 | 1010.0 |
| 20260505061507 | 66 | 161 | 7.0 | 17.0 | 0.00 | 0.00 | 0.00 | 44 | 1010.1 |
| 20260505060002 | 67 | 138 | 9.0 | 17.0 | 0.00 | 0.00 | 0.00 | 44 | 1010.1 |
| 20260505054502 | 67 | 140 | 5.0 | 17.0 | 0.00 | 0.00 | 0.00 | 44 | 1010.1 |
| 20260505053001 | 67 | 131 | 2.0 | 16.0 | 0.00 | 0.00 | 0.00 | 43 | 1010.1 |
| 20260505051600 | 67 | 135 | 8.0 | 17.0 | 0.00 | 0.00 | 0.00 | 43 | 1010.1 |
| 20260505050106 | 67 | 144 | 7.0 | 15.0 | 0.00 | 0.00 | 0.00 | 43 | 1010.1 |
| 20260505041558 | 68 | 133 | 10.0 | 18.0 | 0.00 | 0.00 | 0.00 | 43 | 1009.9 |
| 20260505040057 | 68 | 119 | 11.0 | 25.0 | 0.00 | 0.00 | 0.00 | 43 | 1009.7 |
| 20260505034557 | 69 | 137 | 10.0 | 18.0 | 0.00 | 0.00 | 0.00 | 42 | 1009.6 |
| 20260505033057 | 70 | 133 | 9.0 | 25.0 | 0.00 | 0.00 | 0.00 | 40 | 1009.5 |